When you browse on this site, cookies collect data to enhance your experience and personalize the content and advertising you see.
Visit our Privacy Policy to learn more. By continuing to use the site, you agree to this use of cookies and data.
  • In Austria
  • List of Countries
  • For 7 days
  • Water Temperature
  • Weather Map
  • News
  • Weather Widgets
  • user-avatar
    Login

    Hourly Weather Altmunster

    Today, 22 September, Sunday

    Time Temperature Precipitation Wind Pressure Humidity
    00:00 +10°C° 0 mm 2 mps 723 mmHg 79%
    01:00 +9°C° 0 mm 2 mps 722 mmHg 81%
    02:00 +9°C° 0 mm 2 mps 722 mmHg 82%
    03:00 +9°C° 0 mm 2 mps 721 mmHg 83%
    04:00 +8°C° 0 mm 2 mps 721 mmHg 84%
    05:00 +10°C° 0 mm 1 mps 721 mmHg 82%
    06:00 +10°C° 0 mm 1 mps 721 mmHg 80%
    07:00 +11°C° 0 mm 1 mps 721 mmHg 78%
    08:00 +13°C° 0 mm 1 mps 721 mmHg 72%
    09:00 +15°C° 0 mm 1 mps 721 mmHg 65%
    10:00 +19°C° 0 mm 1 mps 721 mmHg 59%
    11:00 +20°C° 0 mm 1 mps 720 mmHg 58%
    12:00 +21°C° 0 mm 1 mps 720 mmHg 56%
    13:00 +22°C° 0 mm 1 mps 719 mmHg 55%
    14:00 +22°C° 0 mm 1 mps 719 mmHg 59%
    15:00 +21°C° 0 mm 1 mps 719 mmHg 63%
    16:00 +21°C° 0 mm 1 mps 719 mmHg 67%
    17:00 +19°C° 0 mm 1 mps 719 mmHg 73%
    18:00 +18°C° 0 mm 1 mps 719 mmHg 79%
    19:00 +15°C° 0 mm 1 mps 718 mmHg 84%
    20:00 +14°C° 0 mm 1 mps 718 mmHg 84%
    21:00 +14°C° 0 mm 1 mps 718 mmHg 84%
    22:00 +14°C° 0 mm 1 mps 718 mmHg 83%
    23:00 +14°C° 0 mm 1 mps 718 mmHg 82%

    Tomorrow, 23 September, Monday

    Time Temperature Precipitation Wind Pressure Humidity
    00:00 +14°C° 0 mm 1 mps 718 mmHg 82%
    01:00 +14°C° 0 mm 1 mps 718 mmHg 81%
    02:00 +14°C° 0 mm 1 mps 718 mmHg 81%
    03:00 +14°C° 0 mm 1 mps 718 mmHg 80%
    04:00 +13°C° 0 mm 0 mps 718 mmHg 80%
    05:00 +14°C° 0 mm 1 mps 718 mmHg 82%
    06:00 +14°C° 0 mm 1 mps 718 mmHg 83%
    07:00 +15°C° 0 mm 2 mps 719 mmHg 84%
    08:00 +15°C° 0.1 mm 2 mps 719 mmHg 86%
    09:00 +14°C° 0.1 mm 3 mps 719 mmHg 88%
    10:00 +16°C° 0.1 mm 3 mps 720 mmHg 90%
    11:00 +14°C° 0.4 mm 3 mps 720 mmHg 91%
    12:00 +14°C° 0.4 mm 3 mps 720 mmHg 93%
    13:00 +13°C° 0.4 mm 3 mps 720 mmHg 94%
    14:00 +13°C° 0.6 mm 3 mps 720 mmHg 95%
    15:00 +12°C° 0.6 mm 3 mps 720 mmHg 95%
    16:00 +12°C° 0.6 mm 3 mps 720 mmHg 96%
    17:00 +12°C° 0.5 mm 3 mps 721 mmHg 96%
    18:00 +13°C° 0.5 mm 2 mps 721 mmHg 96%
    19:00 +13°C° 0.5 mm 2 mps 721 mmHg 96%
    20:00 +13°C° 0.2 mm 2 mps 722 mmHg 96%
    21:00 +13°C° 0.2 mm 1 mps 722 mmHg 96%
    22:00 +13°C° 0.2 mm 1 mps 722 mmHg 96%
    23:00 +13°C° 0.1 mm 1 mps 722 mmHg 95%

    Day after tomorrow, 24 September, Tuesday

    Time Temperature Precipitation Wind Pressure Humidity
    00:00 +13°C° 0.1 mm 1 mps 722 mmHg 95%
    01:00 +13°C° 0.1 mm 1 mps 722 mmHg 95%
    02:00 +12°C° 0 mm 1 mps 722 mmHg 95%
    03:00 +12°C° 0 mm 1 mps 721 mmHg 95%
    04:00 +12°C° 0 mm 1 mps 721 mmHg 94%
    05:00 +12°C° 0 mm 1 mps 721 mmHg 94%
    06:00 +12°C° 0 mm 1 mps 721 mmHg 93%
    07:00 +12°C° 0 mm 1 mps 721 mmHg 93%
    08:00 +13°C° 0 mm 0 mps 721 mmHg 85%
    09:00 +15°C° 0 mm 0 mps 721 mmHg 78%
    10:00 +17°C° 0 mm 0 mps 720 mmHg 71%
    11:00 +18°C° 0 mm 0 mps 720 mmHg 66%
    12:00 +21°C° 0 mm 1 mps 719 mmHg 62%
    13:00 +21°C° 0 mm 1 mps 719 mmHg 57%
    14:00 +21°C° 0 mm 1 mps 718 mmHg 60%
    15:00 +21°C° 0 mm 1 mps 718 mmHg 63%
    16:00 +20°C° 0 mm 1 mps 718 mmHg 66%
    17:00 +18°C° 0 mm 1 mps 717 mmHg 73%
    18:00 +16°C° 0 mm 1 mps 717 mmHg 81%
    19:00 +13°C° 0 mm 0 mps 717 mmHg 88%
    20:00 +13°C° 0 mm 0 mps 717 mmHg 88%
    21:00 +14°C° 0 mm 1 mps 718 mmHg 87%
    22:00 +14°C° 0 mm 1 mps 718 mmHg 87%
    23:00 +14°C° 0 mm 1 mps 718 mmHg 88%

    25 September, Wednesday

    Time Temperature Precipitation Wind Pressure Humidity
    00:00 +14°C° 0 mm 1 mps 717 mmHg 89%
    01:00 +13°C° 0 mm 1 mps 717 mmHg 90%
    02:00 +14°C° 0 mm 1 mps 717 mmHg 89%
    03:00 +14°C° 0 mm 1 mps 717 mmHg 88%
    04:00 +14°C° 0 mm 1 mps 717 mmHg 87%
    05:00 +14°C° 0 mm 1 mps 717 mmHg 87%
    06:00 +14°C° 0 mm 1 mps 717 mmHg 87%
    07:00 +14°C° 0 mm 1 mps 717 mmHg 86%
    08:00 +15°C° 0.2 mm 2 mps 717 mmHg 85%
    09:00 +15°C° 0.2 mm 2 mps 717 mmHg 83%
    10:00 +16°C° 0.2 mm 3 mps 717 mmHg 82%
    11:00 +14°C° 0.6 mm 3 mps 717 mmHg 84%
    12:00 +14°C° 0.6 mm 3 mps 717 mmHg 87%
    13:00 +13°C° 0.6 mm 3 mps 717 mmHg 89%
    14:00 +13°C° 1.2 mm 3 mps 717 mmHg 90%
    15:00 +14°C° 1.2 mm 2 mps 717 mmHg 91%
    16:00 +13°C° 1.2 mm 2 mps 718 mmHg 92%
    17:00 +13°C° 0.4 mm 2 mps 718 mmHg 92%
    18:00 +13°C° 0.4 mm 2 mps 718 mmHg 92%
    19:00 +12°C° 0.4 mm 2 mps 719 mmHg 92%
    20:00 +12°C° 0.1 mm 2 mps 719 mmHg 93%
    21:00 +12°C° 0.1 mm 2 mps 719 mmHg 93%
    22:00 +10°C° 0.1 mm 2 mps 720 mmHg 93%
    23:00 +12°C° 0.1 mm 2 mps 720 mmHg 93%

    26 September, Thursday

    Time Temperature Precipitation Wind Pressure Humidity
    00:00 +12°C° 0.1 mm 2 mps 720 mmHg 93%
    01:00 +12°C° 0.1 mm 2 mps 720 mmHg 93%
    02:00 +12°C° 0.1 mm 2 mps 720 mmHg 93%
    03:00 +12°C° 0.1 mm 2 mps 720 mmHg 93%
    04:00 +12°C° 0.1 mm 2 mps 721 mmHg 93%
    05:00 +12°C° 0.1 mm 2 mps 721 mmHg 92%
    06:00 +12°C° 0.1 mm 2 mps 721 mmHg 92%
    07:00 +12°C° 0.1 mm 1 mps 721 mmHg 92%
    08:00 +14°C° 0 mm 2 mps 721 mmHg 84%
    09:00 +15°C° 0 mm 2 mps 721 mmHg 76%
    10:00 +17°C° 0 mm 2 mps 722 mmHg 68%
    11:00 +17°C° 0 mm 2 mps 721 mmHg 65%
    12:00 +18°C° 0 mm 2 mps 721 mmHg 63%
    13:00 +18°C° 0 mm 2 mps 721 mmHg 60%
    14:00 +19°C° 0 mm 1 mps 721 mmHg 64%
    15:00 +19°C° 0 mm 1 mps 721 mmHg 68%
    16:00 +18°C° 0 mm 1 mps 721 mmHg 71%
    17:00 +16°C° 0 mm 1 mps 721 mmHg 73%
    18:00 +16°C° 0 mm 1 mps 721 mmHg 74%
    19:00 +15°C° 0 mm 1 mps 721 mmHg 75%
    20:00 +15°C° 0 mm 1 mps 721 mmHg 76%
    21:00 +14°C° 0 mm 1 mps 721 mmHg 77%
    22:00 +14°C° 0 mm 1 mps 721 mmHg 78%
    23:00 +13°C° 0 mm 1 mps 721 mmHg 79%

    27 September, Friday

    Time Temperature Precipitation Wind Pressure Humidity
    00:00 +13°C° 0 mm 1 mps 721 mmHg 80%
    01:00 +12°C° 0 mm 1 mps 721 mmHg 82%
    02:00 +12°C° 0 mm 1 mps 721 mmHg 81%
    03:00 +12°C° 0 mm 1 mps 721 mmHg 80%
    04:00 +12°C° 0 mm 1 mps 721 mmHg 79%
    05:00 +13°C° 0 mm 1 mps 721 mmHg 77%
    06:00 +13°C° 0 mm 1 mps 721 mmHg 75%
    07:00 +13°C° 0 mm 0 mps 721 mmHg 73%
    08:00 +14°C° 0 mm 0 mps 721 mmHg 71%
    09:00 +16°C° 0 mm 0 mps 721 mmHg 68%
    10:00 +17°C° 0 mm 0 mps 721 mmHg 66%
    11:00 +20°C° 0 mm 1 mps 721 mmHg 64%
    12:00 +20°C° 0 mm 1 mps 721 mmHg 62%
    13:00 +21°C° 0 mm 1 mps 721 mmHg 59%
    14:00 +21°C° 0 mm 1 mps 720 mmHg 63%
    15:00 +20°C° 0 mm 1 mps 720 mmHg 67%
    16:00 +20°C° 0 mm 1 mps 720 mmHg 72%
    17:00 +19°C° 0 mm 1 mps 720 mmHg 74%
    18:00 +18°C° 0 mm 1 mps 720 mmHg 77%
    19:00 +15°C° 0 mm 0 mps 720 mmHg 79%
    20:00 +16°C° 0.1 mm 1 mps 721 mmHg 81%
    21:00 +16°C° 0.1 mm 2 mps 721 mmHg 82%
    22:00 +15°C° 0.1 mm 2 mps 721 mmHg 84%
    23:00 +15°C° 1.8 mm 2 mps 721 mmHg 88%
    Show more